Tracking 19489 objects as of 22-Jan-2019
HD Live streaming from Space Station
objects crossing your sky now

ANIK A3 (TELESAT-3)

Track ANIK A3 (TELESAT-3) now!
ANIK A3 (TELESAT-3) is classified as:


NORAD ID: 7790
Int'l Code: 1975-038A
Perigee: 35,826.5 km
Apogee: 35,877.4 km
Inclination: 13.1 °
Period: 1,439.1 minutes
Semi major axis: 42222 km
RCS: 3.6797 m2 (large)
Launch date: May 7, 1975
Source: Canada (CA)
Launch site: AIR FORCE EASTERN TEST RANGE (AFETR)
aabbcc
Your satellite tracking list
Your tracking list is empty




NASA's NSSDC Master Catalog

Two Line Element Set (TLE):
1  7790U 75038A   19021.64238944 -.00000126  00000-0  00000+0 0  9998
2  7790  13.0881 328.3840 0006021 339.8492  34.5988  1.00064540102900
Source of the keplerian elements: AFSPC